Tracking 19720 objects as of 27-Jun-2019
HD Live streaming from Space Station
objects crossing your sky now

FLOCK 3P 27

Track FLOCK 3P 27 now!
10-day predictions
FLOCK 3P 27 is classified as:


NORAD ID: 41963
Int'l Code: 2017-008R
Perigee: 487.4 km
Apogee: 501.3 km
Inclination: 97.4 °
Period: 94.4 minutes
Semi major axis: 6865 km
RCS: Unknown
Launch date: February 15, 2017
Source: United States (US)
Launch site: SRIHARIKOTA (SRI)
aabbcc
Your satellite tracking list
Your tracking list is empty




NASA's NSSDC Master Catalog

Two Line Element Set (TLE):
1 41963U 17008R   19177.15575514  .00001520  00000-0  61529-4 0  9992
2 41963  97.4056 244.2277 0010091 109.7650 250.4677 15.26194448130956
Source of the keplerian elements: AFSPC